Cheraw, SC

7:10 AM EST on February 21, 2018 (GMT -0500)
Cheraw

Weather History for KCQW - April, 2013

Change the Weather History Date:

Thursday, April 4, 2013

  Actual Average (KFLO) Record (KFLO)
Temperature  
Mean Temperature 44 °F -  
Max Temperature 48 °F 75 °F 93 °F (1999)
Min Temperature 39 °F 50 °F 36 °F (1992)
Degree Days  
Heating Degree Days 22    
Moisture  
Dew Point 37 °F    
Average Humidity 82    
Maximum Humidity 100    
Minimum Humidity 50    
Precipitation  
Precipitation 0.81 in - - ()
Sea Level Pressure  
Sea Level Pressure 30.14 in    
Wind  
Wind Speed - (North)    
Max Wind Speed -    
Max Gust Speed -    
Visibility 6 miles    
Events Rain    
Averages and records for this station are not official NWS values.
T = Trace of Precipitation, MM = Missing Value Source: NWS Daily Summary

Daily Weather History Graph

Daily Weather History Graph

Search for Another Location

Airport or City:

Trip Planner

Search our weather history database for the weather conditions in past years. The results will help you decide how hot, cold, wet, or windy it might be!

Date:

Astronomy

Apr. 04, 2013 Rise Set
Actual Time 7:02 AM EDT 7:43 PM EDT
Civil Twilight 6:36 AM EDT 8:09 PM EDT
Nautical Twilight 6:06 AM EDT 8:39 PM EDT
Astronomical Twilight 5:36 AM EDT 9:10 PM EDT
Moon 3:14 AM EDT (4/4) 2:12 PM EDT (4/4)
Length of Visible Light 13h 32m
Length of Day
12h 41m
Waning Crescent, 34% of the Moon is Illuminated
Apr 4
Waning Crescent
Apr 10
New
Apr 18
First Quarter
Apr 25
Full
May 2
Last Quarter

Hourly Weather History & Observations

Time (EDT) Temp. Dew Point Humidity Pressure Visibility Wind Dir Wind Speed Gust Speed Precip Events Conditions
12:15 AM 46.4 °F 35.6 °F 66% 30.26 in 10.0 mi North - - N/A   Clear
12:35 AM 46.4 °F 37.4 °F 71% 30.26 in 10.0 mi North - - N/A   Clear
12:55 AM 46.4 °F 39.2 °F 76% 30.26 in 10.0 mi North - - N/A   Mostly Cloudy
1:15 AM 48.2 °F 35.6 °F 62% 30.26 in 10.0 mi North - - N/A   Mostly Cloudy
1:35 AM 46.4 °F 37.4 °F 71% 30.26 in 10.0 mi North - - N/A   Mostly Cloudy
1:55 AM 46.4 °F 41.0 °F 81% 30.26 in 10.0 mi North - - N/A   Scattered Clouds
2:15 AM 44.6 °F 41.0 °F 87% 30.25 in 10.0 mi North - - N/A   Partly Cloudy
2:35 AM 46.4 °F 41.0 °F 81% 30.25 in 10.0 mi North - - N/A   Scattered Clouds
2:55 AM 44.6 °F 41.0 °F 87% 30.23 in 10.0 mi North - - N/A   Partly Cloudy
3:15 AM 44.6 °F 39.2 °F 81% 30.24 in 10.0 mi North - - N/A   Clear
3:35 AM 46.4 °F 37.4 °F 71% 30.23 in 10.0 mi North - - N/A   Clear
3:55 AM 46.4 °F 39.2 °F 76% 30.22 in 10.0 mi North - - N/A   Scattered Clouds
4:15 AM 46.4 °F 37.4 °F 71% 30.22 in 10.0 mi North - - N/A   Mostly Cloudy
4:35 AM 46.4 °F 32.0 °F 57% 30.23 in 10.0 mi North - - N/A   Mostly Cloudy
4:55 AM 46.4 °F 32.0 °F 57% 30.23 in 10.0 mi North - - N/A   Partly Cloudy
5:15 AM 46.4 °F 32.0 °F 57% 30.24 in 10.0 mi North - - N/A   Clear
5:35 AM 46.4 °F 32.0 °F 57% 30.24 in 10.0 mi North - - N/A   Scattered Clouds
5:55 AM 46.4 °F 30.2 °F 53% 30.25 in 10.0 mi North - - N/A   Scattered Clouds
6:15 AM 46.4 °F 28.4 °F 50% 30.24 in 10.0 mi North - - N/A   Partly Cloudy
6:35 AM 46.4 °F 28.4 °F 50% 30.25 in 10.0 mi North - - N/A   Partly Cloudy
6:55 AM 46.4 °F 32.0 °F 57% 30.25 in 10.0 mi North - - N/A   Scattered Clouds
7:15 AM 44.6 °F 32.0 °F 61% 30.25 in 10.0 mi North - - N/A   Partly Cloudy
7:35 AM 44.6 °F 30.2 °F 57% 30.25 in 10.0 mi North - - N/A   Clear
7:55 AM 44.6 °F 30.2 °F 57% 30.26 in 10.0 mi North - - N/A   Scattered Clouds
8:15 AM 44.6 °F 30.2 °F 57% 30.27 in 10.0 mi North - - N/A   Mostly Cloudy
8:35 AM 44.6 °F 32.0 °F 61% 30.28 in 10.0 mi North - - N/A   Mostly Cloudy
8:55 AM 44.6 °F 32.0 °F 61% 30.27 in 10.0 mi North - - N/A Rain Light Rain
9:15 AM 44.6 °F 32.0 °F 61% 30.27 in 10.0 mi North - - N/A   Mostly Cloudy
9:35 AM 44.6 °F 32.0 °F 61% 30.26 in 10.0 mi North - - N/A   Overcast
9:55 AM 46.4 °F 32.0 °F 57% 30.25 in 10.0 mi North - - N/A   Overcast
10:15 AM 46.4 °F 32.0 °F 57% 30.25 in 10.0 mi North - - N/A   Overcast
10:35 AM 44.6 °F 32.0 °F 61% 30.25 in 10.0 mi North - - N/A Rain Light Rain
10:55 AM 44.6 °F 32.0 °F 61% 30.25 in 10.0 mi North - - N/A Rain Light Rain
11:15 AM 42.8 °F 33.8 °F 70% 30.22 in 4.0 mi North - - N/A Rain Light Rain
11:35 AM 41.0 °F 37.4 °F 87% 30.21 in 6.0 mi North - - 0.02 in Rain Light Rain
11:55 AM 41.0 °F 37.4 °F 87% 30.22 in 10.0 mi North - - 0.02 in Rain Light Rain
12:35 PM 41.0 °F 39.2 °F 93% 30.19 in 3.0 mi North - - 0.05 in Rain Rain
12:55 PM 41.0 °F 39.2 °F 93% 30.17 in 2.0 mi North - - 0.11 in Rain Rain
1:15 PM 41.0 °F 39.2 °F 93% 30.15 in 2.5 mi North - - 0.05 in Rain Heavy Rain
1:35 PM 41.0 °F 39.2 °F 93% 30.15 in 2.5 mi North - - 0.09 in Rain Rain
1:55 PM 39.2 °F 39.2 °F 100% 30.13 in 1.8 mi North - - 0.14 in Rain Rain
2:15 PM 41.0 °F 39.2 °F 93% 30.12 in 1.8 mi North - - 0.03 in Rain Rain
2:35 PM 41.0 °F 39.2 °F 93% 30.13 in 1.5 mi North - - 0.05 in Rain Rain
2:55 PM 41.0 °F 39.2 °F 93% 30.12 in 2.5 mi North - - 0.10 in Rain Rain
3:15 PM 39.2 °F 39.2 °F 100% 30.09 in 1.8 mi North - - 0.01 in Rain Light Rain
3:35 PM 41.0 °F 39.2 °F 93% 30.08 in 1.8 mi North - - 0.06 in Rain Heavy Rain
3:55 PM 41.0 °F 39.2 °F 93% 30.06 in 2.0 mi North - - 0.12 in Rain Rain
4:15 PM 41.0 °F 39.2 °F 93% 30.05 in 1.8 mi North - - 0.02 in Rain Light Rain
4:35 PM 41.0 °F 41.0 °F 100% 30.04 in 5.0 mi North - - 0.03 in Rain Light Rain
4:55 PM 41.0 °F 41.0 °F 100% 30.04 in 3.0 mi North - - 0.04 in Rain Light Rain
5:15 PM 41.0 °F 41.0 °F 100% 30.02 in 1.8 mi North - - 0.01 in Rain Light Rain
5:35 PM 41.0 °F 41.0 °F 100% 30.01 in 2.5 mi North - - 0.03 in Rain Rain
5:55 PM 41.0 °F 41.0 °F 100% 30.00 in 3.0 mi North - - 0.03 in Rain Light Rain
6:15 PM 41.0 °F 41.0 °F 100% 29.99 in 1.8 mi North - - 0.05 in Rain Heavy Rain
6:35 PM 41.0 °F 41.0 °F 100% 29.98 in 1.0 mi North - - 0.15 in Rain Heavy Rain
6:55 PM 41.0 °F 41.0 °F 100% 29.98 in 1.2 mi North - - 0.18 in Rain Rain
7:15 PM 41.0 °F 41.0 °F 100% 29.98 in 1.2 mi North - - N/A Rain Light Rain
7:35 PM 41.0 °F 41.0 °F 100% 29.97 in 2.0 mi North - - 0.01 in Rain Light Rain
7:55 PM 41.0 °F 41.0 °F 100% 29.96 in 2.0 mi North - - 0.03 in Rain Light Rain
8:15 PM 41.0 °F 41.0 °F 100% 29.96 in 3.0 mi North - - 0.01 in Rain Light Rain
8:35 PM 41.0 °F 41.0 °F 100% 29.95 in 5.0 mi North - - 0.01 in Rain Light Rain
8:55 PM 41.0 °F 41.0 °F 100% 29.95 in 3.0 mi North - - 0.02 in Rain Light Rain
9:35 PM 39.2 °F 39.2 °F 100% 29.95 in 3.0 mi North - - 0.01 in Rain Light Rain
9:55 PM 39.2 °F 39.2 °F 100% 29.95 in 3.0 mi North - - 0.01 in Rain Light Rain
10:15 PM 39.2 °F 39.2 °F 100% 29.94 in 3.0 mi North - - N/A Rain Light Rain
10:35 PM 39.2 °F 39.2 °F 100% 29.95 in 2.5 mi North - - 0.01 in Rain Light Rain
10:55 PM 39.2 °F 39.2 °F 100% 29.93 in 2.5 mi North - - 0.01 in Rain Light Rain
11:15 PM 39.2 °F 39.2 °F 100% 29.94 in 3.0 mi North - - N/A   Overcast
11:35 PM 39.2 °F 39.2 °F 100% 29.93 in 5.0 mi North - - N/A   Overcast
11:55 PM 39.2 °F 39.2 °F 100% 29.93 in 5.0 mi North - - N/A   Overcast